[[{"header":{"parameterUnit":"m.s-1","parameterCategory":2,"la1":30.2991,"la2":30.254,"lo1":-89.0895,"lo2":-89.0444,"dy":0.0017,"dx":0.0017,"nx":28,"ny":28,"refTime":"2024-05-10T09:00:00:Z","depth":"0","parameterNumber":2,"parameterNumberName":"U-component_of_CURRENTS"},"data":[0,0,0,0,0,0,0,0,0,0,0,0,0,0,0,0,0,0,0,0,0,0,0,0,0,0,0,0,0,0,0,0,0,0,0,0,0,0,0,0,0,0,0,0,0,0,0,0,0,0,0,0,0,0,0,0,0,0,-0.2163,-0.2163,0,-0.2138,-0.2137,-0.2137,-0.209,-0.2089,-0.2088,-0.2087,-0.205,-0.2049,-0.2049,0,0,0,0,0,0,0,0,0,0,0,0,0,-0.2198,-0.2198,-0.2163,-0.2163,-0.2163,-0.2138,-0.2137,-0.2137,-0.209,-0.2089,-0.2088,-0.2087,-0.205,-0.205,-0.2049,0,0,0,0,0,0,0,0,0,0,0,0,0,-0.2178,-0.2198,-0.2163,-0.2137,-0.2134,-0.2138,-0.2137,-0.2137,-0.209,-0.2089,-0.2088,-0.2086,-0.205,-0.205,-0.2049,-0.2072,0,0,-0.2048,-0.2048,0,0,0,0,0,0,0,0,-0.2179,-0.2177,-0.2141,-0.2139,-0.2136,-0.2116,-0.2136,-0.2115,-0.209,-0.2106,-0.2087,-0.2086,-0.2073,-0.207,-0.2067,-0.207,-0.2068,-0.2048,-0.2048,-0.2048,-0.2048,0,0,0,0,0,0,0,-0.2181,-0.2178,-0.2152,-0.2141,-0.2138,-0.2136,-0.2131,-0.2132,-0.2095,-0.2104,-0.2101,-0.21,-0.2071,-0.2067,-0.2066,-0.2068,-0.2048,-0.2048,-0.2048,-0.2047,-0.2137,-0.214,0,0,0,0,0,0,-0.2186,-0.2179,-0.2153,-0.2151,-0.2156,-0.2136,-0.2131,-0.2123,-0.2095,-0.2091,-0.2101,-0.2098,-0.2069,-0.2066,-0.2064,-0.2096,-0.2048,-0.2047,-0.2047,-0.2135,-0.2138,-0.2141,0,0,0,0,0,0,-0.2186,-0.2183,-0.2154,-0.2166,-0.2162,-0.2137,-0.2128,-0.2123,-0.2112,-0.2094,-0.2088,-0.2094,-0.2067,-0.2065,-0.2067,-0.2094,-0.2047,-0.2047,-0.2132,-0.2136,-0.2139,-0.2155,0,0,0,0,0,0,-0.2187,-0.2184,-0.2176,-0.2166,-0.2161,-0.2154,-0.213,-0.2124,-0.2114,-0.2109,-0.2086,-0.2081,-0.2066,-0.2068,-0.2067,-0.2092,-0.2047,-0.2128,-0.2133,-0.2138,-0.2152,-0.2159,-0.2166,0,0,0,0,0,-0.2189,-0.2179,-0.2176,-0.2173,-0.2153,-0.2154,-0.2152,-0.213,-0.2115,-0.2114,-0.2103,-0.2082,-0.2099,-0.2069,-0.2067,-0.2093,-0.2126,-0.2132,-0.2138,-0.2148,-0.2158,-0.2166,0,0,0,0,0,0,-0.2183,-0.2174,-0.217,-0.2155,-0.2157,-0.2147,-0.2138,-0.2132,-0.2123,-0.2115,-0.2096,-0.2092,-0.2113,-0.211,-0.2077,-0.2142,-0.2118,-0.2123,-0.2127,-0.2135,-0.2143,-0.2136,-0.2046,0,0,0,0,0,-0.2183,-0.2173,-0.2173,-0.2161,-0.2162,-0.2154,-0.215,-0.2141,-0.2134,-0.2127,-0.2116,-0.2121,-0.2141,-0.2138,-0.2152,-0.2171,-0.2135,-0.2198,-0.2205,-0.2211,-0.2211,-0.2194,-0.2197,-0.216,-0.216,-0.216,0,0,-0.2175,-0.217,-0.2162,-0.2159,-0.2155,-0.217,-0.2147,-0.2143,-0.2159,-0.2127,-0.2137,-0.2141,-0.2155,-0.2182,-0.2193,-0.2174,-0.2199,-0.2219,-0.2223,-0.2219,-0.22,-0.2203,-0.2205,-0.2164,-0.2163,-0.2163,0,0,-0.2168,-0.2154,-0.2153,-0.2162,-0.2165,-0.217,-0.2172,-0.2171,-0.2169,-0.2185,-0.2181,-0.2193,-0.2212,-0.2225,-0.2237,-0.2296,-0.2242,-0.2317,-0.2334,-0.2318,-0.2319,-0.232,-0.2245,-0.2239,-0.2314,-0.2314,-0.2314,0,-0.2162,-0.2162,-0.2154,-0.2168,-0.2177,-0.2175,-0.2192,-0.2202,-0.2202,-0.2207,-0.2193,-0.2231,-0.2236,-0.2274,-0.2302,-0.2308,-0.227,-0.2289,-0.2321,-0.2322,-0.2322,-0.2246,-0.2239,-0.2316,-0.2315,-0.2315,-0.2315,0,-0.2164,-0.2172,-0.2173,-0.2194,-0.2206,-0.2215,-0.2238,-0.2248,-0.2249,-0.2256,-0.2282,-0.2286,-0.2304,-0.2325,-0.2328,-0.2357,-0.2316,-0.2329,-0.2283,-0.2326,-0.2243,-0.2236,-0.2318,-0.2317,-0.2317,-0.2316,0,0,-0.2124,-0.2168,-0.2167,-0.2184,-0.222,-0.2223,-0.2266,-0.2293,-0.2301,-0.2316,-0.2323,-0.2372,-0.2359,-0.2375,-0.2381,-0.2374,-0.2338,-0.2356,-0.2354,-0.2252,-0.2252,-0.2133,-0.2113,-0.235,-0.235,-0.235,-0.2177,0,-0.2128,-0.2158,-0.2186,-0.2218,-0.2233,-0.2263,-0.2299,-0.2324,-0.2335,-0.2342,-0.2358,-0.2368,-0.2385,-0.238,-0.2385,-0.236,-0.2326,-0.238,-0.2252,-0.2247,-0.2114,-0.2104,-0.2002,-0.1833,-0.217,-0.2168,-0.2167,0,-0.2116,-0.2139,-0.2173,-0.2223,-0.2233,-0.2256,-0.2289,-0.232,-0.235,-0.2359,-0.2374,-0.2374,-0.2383,-0.2383,-0.2337,-0.2368,-0.2313,-0.228,-0.2273,-0.2153,-0.2116,-0.1857,-0.1806,-0.1777,-0.2155,-0.2156,-0.2157,0,-0.2065,-0.2124,-0.2147,-0.2164,-0.2227,-0.2243,-0.2271,-0.2309,-0.2331,-0.2349,-0.2351,-0.2364,-0.2345,-0.2318,-0.226,-0.2294,-0.2172,-0.2206,-0.2034,-0.2023,-0.1905,-0.1884,-0.1788,-0.215,-0.2151,-0.2151,-0.2152,0,-0.2045,-0.2056,-0.212,-0.2125,-0.2151,-0.22,-0.2223,-0.2256,-0.2294,-0.2302,-0.2341,-0.2326,-0.233,-0.2269,-0.2231,-0.2086,-0.214,-0.2016,-0.1975,-0.1906,-0.1887,-0.1834,-0.1865,-0.2145,-0.2146,-0.2148,-0.2149,0,-0.1973,-0.2022,-0.2044,-0.2105,-0.2124,-0.2129,-0.2195,-0.2208,-0.2253,-0.2258,-0.2261,-0.2276,-0.2186,-0.2147,-0.2061,-0.2011,-0.185,-0.1839,-0.1724,-0.1674,-0.15,-0.1536,-0.1402,-0.1368,-0.1621,-0.1617,-0.1614,0,-0.1935,-0.1941,-0.2004,-0.2017,-0.204,-0.207,-0.2097,-0.217,-0.2187,-0.2211,-0.22,-0.2129,-0.205,-0.1867,-0.1759,-0.1611,-0.1661,-0.1438,-0.1502,-0.145,-0.1462,-0.1515,-0.1504,-0.1335,-0.133,-0.1326,-0.1322,0,-0.1854,-0.1877,-0.1896,-0.1926,-0.1951,-0.1984,-0.202,-0.2038,-0.2105,-0.2092,-0.2022,-0.195,-0.1787,-0.1579,-0.1409,-0.1336,-0.1393,-0.1342,-0.1336,-0.126,-0.1264,-0.1225,-0.1462,-0.1284,-0.1288,-0.129,-0.1293,-0.1294,-0.1775,-0.1773,-0.1798,-0.1812,-0.1846,-0.1851,-0.1853,-0.1878,-0.1858,-0.1789,-0.1794,-0.1607,-0.1456,-0.1194,-0.1119,-0.095,-0.1074,-0.0922,-0.097,-0.1028,-0.1004,-0.1121,-0.0883,-0.0884,-0.0885,-0.0886,-0.0888,0,-0.1666,-0.1673,-0.1684,-0.1699,-0.1688,-0.1745,-0.1769,-0.1729,-0.165,-0.1525,-0.1405,-0.1138,-0.0953,-0.0855,-0.068,-0.0605,-0.0649,-0.0604,-0.0686,-0.0696,-0.0812,-0.0809,-0.0486,-0.0486,-0.0486,-0.0486,-0.0486,-0.0486,-0.1606,-0.1568,-0.1574,-0.1514,-0.154,-0.1518,-0.1513,-0.142,-0.131,-0.1021,-0.0809,-0.0689,-0.0626,-0.0543,-0.0453,-0.0434,-0.0479,-0.0432,-0.0506,-0.0623,-0.0659,-0.0693,-0.0697,-0.0355,-0.0355,-0.0357,-0.0357,-0.0357]},{"header":{"parameterUnit":"m.s-1","parameterCategory":2,"la1":30.2991,"la2":30.254,"lo1":-89.0895,"lo2":-89.0444,"dy":0.0017,"dx":0.0017,"nx":28,"ny":28,"refTime":"2024-05-10T09:00:00:Z","depth":"0","parameterNumber":3,"parameterNumberName":"V-component_of_CURRENTS"},"data":[0,0,0,0,0,0,0,0,0,0,0,0,0,0,0,0,0,0,0,0,0,0,0,0,0,0,0,0,0,0,0,0,0,0,0,0,0,0,0,0,0,0,0,0,0,0,0,0,0,0,0,0,0,0,0,0,0,0,-0.0678,-0.0678,0,-0.0621,-0.0621,-0.062,-0.0579,-0.0579,-0.0578,-0.0578,-0.0476,-0.0474,-0.0471,0,0,0,0,0,0,0,0,0,0,0,0,0,-0.0727,-0.0727,-0.0678,-0.0678,-0.0677,-0.0621,-0.062,-0.062,-0.0579,-0.0579,-0.0578,-0.0578,-0.0477,-0.0474,-0.0471,0,0,0,0,0,0,0,0,0,0,0,0,0,-0.0691,-0.0726,-0.0678,-0.065,-0.0647,-0.0621,-0.062,-0.0619,-0.0579,-0.0579,-0.0578,-0.0578,-0.0478,-0.0474,-0.0471,-0.0457,0,0,-0.0459,-0.0458,0,0,0,0,0,0,0,0,-0.0693,-0.0689,-0.0655,-0.0652,-0.0649,-0.0607,-0.06,-0.0563,-0.0579,-0.0604,-0.0578,-0.0578,-0.0516,-0.051,-0.05,-0.0452,-0.0447,-0.0459,-0.0457,-0.0455,-0.0454,0,0,0,0,0,0,0,-0.0696,-0.0691,-0.0655,-0.0654,-0.0651,-0.0632,-0.0627,-0.0593,-0.0562,-0.0602,-0.0599,-0.0594,-0.0514,-0.0503,-0.0497,-0.0446,-0.0459,-0.0456,-0.0454,-0.0452,-0.0367,-0.0367,0,0,0,0,0,0,-0.0706,-0.0694,-0.0657,-0.0653,-0.0671,-0.0632,-0.0626,-0.0621,-0.0564,-0.0555,-0.0594,-0.0592,-0.051,-0.0501,-0.0493,-0.0467,-0.0455,-0.0452,-0.045,-0.0367,-0.0367,-0.0367,0,0,0,0,0,0,-0.0707,-0.0703,-0.0659,-0.0673,-0.0666,-0.0632,-0.0626,-0.062,-0.0607,-0.0558,-0.0548,-0.0589,-0.0509,-0.0498,-0.0465,-0.0463,-0.045,-0.0447,-0.0367,-0.0367,-0.0367,-0.0418,0,0,0,0,0,0,-0.0709,-0.0704,-0.0704,-0.0674,-0.0666,-0.0648,-0.0626,-0.0619,-0.0605,-0.0602,-0.055,-0.054,-0.0508,-0.047,-0.0461,-0.0457,-0.0444,-0.0368,-0.0367,-0.0367,-0.0416,-0.0419,-0.0422,0,0,0,0,0,-0.0711,-0.0713,-0.0704,-0.07,-0.0667,-0.0648,-0.0642,-0.0616,-0.0605,-0.0603,-0.0568,-0.0542,-0.0463,-0.0468,-0.0456,-0.0452,-0.0368,-0.0367,-0.0367,-0.0415,-0.0419,-0.0422,0,0,0,0,0,0,-0.0731,-0.0708,-0.0698,-0.0692,-0.0674,-0.0641,-0.0637,-0.062,-0.0591,-0.0587,-0.0541,-0.0529,-0.0501,-0.0469,-0.0475,-0.0427,-0.0411,-0.0409,-0.0451,-0.0454,-0.0457,-0.0456,-0.0441,0,0,0,0,0,-0.0737,-0.0736,-0.0709,-0.0705,-0.0698,-0.0669,-0.0658,-0.0642,-0.0613,-0.06,-0.0565,-0.0526,-0.0492,-0.0468,-0.0437,-0.0408,-0.0362,-0.0397,-0.04,-0.0403,-0.0394,-0.0323,-0.0318,-0.0367,-0.0367,-0.0367,0,0,-0.0745,-0.0732,-0.0731,-0.071,-0.0694,-0.0688,-0.0661,-0.065,-0.0641,-0.0593,-0.0571,-0.0539,-0.0489,-0.046,-0.0444,-0.0431,-0.0368,-0.0403,-0.0406,-0.0395,-0.0322,-0.0317,-0.0313,-0.0367,-0.0367,-0.0367,0,0,-0.0765,-0.0748,-0.0756,-0.0745,-0.0726,-0.0705,-0.0704,-0.0675,-0.0657,-0.0635,-0.0598,-0.0561,-0.0515,-0.0473,-0.0446,-0.0444,-0.0392,-0.0439,-0.0445,-0.0376,-0.0371,-0.0366,-0.0315,-0.0305,-0.0434,-0.0434,-0.0434,0,-0.0776,-0.0779,-0.0755,-0.0761,-0.0753,-0.0716,-0.0721,-0.0697,-0.0661,-0.0641,-0.0636,-0.0553,-0.0517,-0.0462,-0.0465,-0.045,-0.0408,-0.0438,-0.038,-0.0374,-0.0368,-0.0316,-0.0304,-0.0437,-0.0436,-0.0436,-0.0436,0,-0.0804,-0.0805,-0.0808,-0.0801,-0.079,-0.0787,-0.0754,-0.0735,-0.071,-0.0681,-0.0632,-0.0579,-0.0523,-0.0511,-0.0488,-0.043,-0.0414,-0.0398,-0.0372,-0.0366,-0.0312,-0.0299,-0.044,-0.0439,-0.0439,-0.0438,0,0,-0.0828,-0.0829,-0.0829,-0.0831,-0.0811,-0.0801,-0.0784,-0.0749,-0.0723,-0.0686,-0.0644,-0.0591,-0.0554,-0.0521,-0.048,-0.0422,-0.0356,-0.0397,-0.0393,-0.0349,-0.0211,-0.0203,-0.0188,-0.0329,-0.0327,-0.0325,-0.0195,0,-0.0855,-0.0879,-0.0866,-0.0874,-0.088,-0.084,-0.0823,-0.0786,-0.0743,-0.0692,-0.0625,-0.0579,-0.0559,-0.053,-0.0468,-0.0383,-0.0322,-0.0393,-0.0221,-0.0216,-0.021,-0.0172,-0.0154,-0.0037,-0.0182,-0.018,-0.0178,0,-0.0885,-0.0894,-0.0918,-0.0905,-0.0901,-0.0898,-0.0849,-0.0828,-0.0749,-0.0715,-0.0649,-0.0594,-0.0507,-0.0493,-0.0334,-0.038,-0.03,-0.0235,-0.0228,-0.0189,-0.0182,-0.0062,-0.0007,0.0064,-0.0158,-0.0159,-0.0161,0,-0.0915,-0.0924,-0.0943,-0.0943,-0.0926,-0.0919,-0.0899,-0.0837,-0.0807,-0.0725,-0.0687,-0.0581,-0.0513,-0.0404,-0.0282,-0.03,-0.0103,-0.0106,-0.002,-0.002,0.0047,0.005,0.0193,0.0017,0.0016,0.0016,0.0016,0,-0.0948,-0.0958,-0.096,-0.0972,-0.0978,-0.0951,-0.0934,-0.0895,-0.0826,-0.0774,-0.0701,-0.0625,-0.0485,-0.0362,-0.0265,-0.01,-0.0083,-0.0005,0.0025,0.0027,0.0026,0.0131,0.0146,0.0021,0.002,0.0019,0.0018,0,-0.0981,-0.0985,-0.1007,-0.1002,-0.0999,-0.1005,-0.0974,-0.0952,-0.0884,-0.0808,-0.0783,-0.0637,-0.0474,-0.0339,-0.0141,-0.0067,0.0129,0.013,0.0109,0.0135,0.0258,0.0267,0.0427,0.049,0.0248,0.0249,0.025,0,-0.1,-0.1019,-0.1038,-0.1056,-0.106,-0.106,-0.1055,-0.0995,-0.0957,-0.0805,-0.0762,-0.0592,-0.0441,-0.0169,-0.0014,0.0168,0.0211,0.0272,0.0242,0.0285,0.032,0.0304,0.0344,0.031,0.0312,0.0313,0.0314,0,-0.1034,-0.1045,-0.1068,-0.1107,-0.1121,-0.1121,-0.1098,-0.1069,-0.0967,-0.0854,-0.0673,-0.0536,-0.0289,-0.0056,0.0145,0.0237,0.0314,0.0299,0.0373,0.0409,0.0378,0.0445,0.0185,0.0324,0.0323,0.0322,0.0322,0.0321,-0.1054,-0.1088,-0.1121,-0.1153,-0.1169,-0.1157,-0.1106,-0.102,-0.0899,-0.0623,-0.0572,-0.0235,-0.0082,0.0219,0.0303,0.0464,0.043,0.0508,0.0525,0.0512,0.0549,0.0293,0.044,0.044,0.044,0.0439,0.0439,0,-0.1075,-0.1115,-0.1157,-0.1187,-0.12,-0.1195,-0.1105,-0.0965,-0.0742,-0.046,-0.021,0.0158,0.0333,0.0479,0.0623,0.0695,0.0701,0.0718,0.0718,0.0757,0.0574,0.0552,0.0695,0.0694,0.0694,0.0694,0.0694,0.0694,-0.109,-0.114,-0.1165,-0.1195,-0.1211,-0.1124,-0.1041,-0.0758,-0.0486,0.0027,0.0405,0.0627,0.0748,0.0766,0.0878,0.0883,0.0962,0.0919,0.098,0.0852,0.0834,0.0816,0.0801,0.0994,0.0994,0.1161,0.1163,0.1164]}],[{"header":{"parameterUnit":"m.s-1","parameterCategory":2,"la1":30.2991,"la2":30.254,"lo1":-89.0895,"lo2":-89.0444,"dy":0.0017,"dx":0.0017,"nx":28,"ny":28,"refTime":"2024-05-10T09:00:00:Z","depth":"2","parameterNumber":2,"parameterNumberName":"U-component_of_CURRENTS"},"data":[0,0,0,0,0,0,0,0,0,0,0,0,0,0,0,0,0,0,0,0,0,0,0,0,0,0,0,0,0,0,0,0,0,0,0,0,0,0,0,0,0,0,0,0,0,0,0,0,0,0,0,0,0,0,0,0,0,0,-0.1786,-0.1786,0,-0.1769,-0.1769,-0.1769,-0.1734,-0.1734,-0.1733,-0.1732,-0.1698,-0.1697,-0.1697,0,0,0,0,0,0,0,0,0,0,0,0,0,-0.181,-0.181,-0.1786,-0.1786,-0.1786,-0.1769,-0.1769,-0.1768,-0.1734,-0.1734,-0.1733,-0.1732,-0.1698,-0.1698,-0.1697,0,0,0,0,0,0,0,0,0,0,0,0,0,-0.1796,-0.181,-0.1786,-0.1768,-0.1766,-0.1769,-0.1769,-0.1768,-0.1734,-0.1734,-0.1733,-0.1732,-0.1698,-0.1698,-0.1697,-0.1711,0,0,-0.1695,-0.1695,0,0,0,0,0,0,0,0,-0.1797,-0.1795,-0.1771,-0.1769,-0.1767,-0.1754,-0.1765,-0.1749,-0.1735,-0.1745,-0.1732,-0.1731,-0.1716,-0.1714,-0.1712,-0.1709,-0.1708,-0.1695,-0.1695,-0.1695,-0.1694,0,0,0,0,0,0,0,-0.1798,-0.1796,-0.1778,-0.1771,-0.1769,-0.1768,-0.1764,-0.1761,-0.1735,-0.1744,-0.1742,-0.1742,-0.1715,-0.1712,-0.171,-0.1707,-0.1695,-0.1695,-0.1694,-0.1694,-0.1727,-0.1728,0,0,0,0,0,0,-0.1802,-0.1797,-0.1779,-0.1778,-0.1782,-0.1768,-0.1764,-0.1758,-0.1735,-0.1731,-0.1743,-0.1741,-0.1714,-0.1711,-0.1709,-0.1727,-0.1695,-0.1694,-0.1694,-0.1726,-0.1727,-0.1728,0,0,0,0,0,0,-0.1803,-0.1801,-0.178,-0.1788,-0.1786,-0.1768,-0.1762,-0.1758,-0.1752,-0.1734,-0.173,-0.1741,-0.1713,-0.171,-0.1709,-0.1726,-0.1694,-0.1693,-0.1724,-0.1726,-0.1728,-0.1762,0,0,0,0,0,0,-0.1803,-0.1801,-0.1797,-0.1788,-0.1785,-0.1781,-0.1763,-0.1759,-0.1755,-0.1751,-0.1731,-0.1727,-0.1712,-0.171,-0.1709,-0.1724,-0.1693,-0.1723,-0.1725,-0.1727,-0.1759,-0.1765,-0.1769,0,0,0,0,0,-0.1804,-0.1798,-0.1797,-0.1795,-0.1781,-0.1781,-0.1779,-0.1764,-0.1755,-0.1755,-0.1745,-0.1727,-0.1724,-0.1711,-0.1709,-0.1724,-0.1722,-0.1724,-0.1727,-0.1757,-0.1764,-0.1769,0,0,0,0,0,0,-0.1802,-0.1794,-0.1792,-0.1783,-0.1784,-0.1776,-0.1772,-0.1768,-0.176,-0.1755,-0.1738,-0.1734,-0.1741,-0.1732,-0.1718,-0.1743,-0.1722,-0.1725,-0.1746,-0.1752,-0.1757,-0.1747,-0.1692,0,0,0,0,0,-0.1803,-0.1796,-0.1796,-0.1788,-0.179,-0.1784,-0.1782,-0.1776,-0.177,-0.1765,-0.1755,-0.175,-0.1753,-0.1751,-0.1749,-0.176,-0.1723,-0.1772,-0.1777,-0.1781,-0.1773,-0.1743,-0.1744,-0.1737,-0.1737,-0.1737,0,0,-0.1798,-0.1795,-0.1789,-0.1788,-0.1785,-0.1795,-0.178,-0.1779,-0.1788,-0.1764,-0.1769,-0.1765,-0.1761,-0.1772,-0.1775,-0.1764,-0.1762,-0.1784,-0.1788,-0.1777,-0.1746,-0.1746,-0.1746,-0.1739,-0.1739,-0.1739,0,0,-0.1793,-0.1786,-0.1784,-0.1791,-0.1794,-0.1797,-0.18,-0.18,-0.1798,-0.1808,-0.1797,-0.1799,-0.1804,-0.18,-0.1801,-0.1834,-0.179,-0.1844,-0.1859,-0.183,-0.183,-0.1829,-0.1769,-0.1763,-0.1846,-0.1847,-0.1847,0,-0.179,-0.1788,-0.1785,-0.1793,-0.1799,-0.1801,-0.1812,-0.1817,-0.1817,-0.1818,-0.1813,-0.1819,-0.1815,-0.1825,-0.1841,-0.1843,-0.181,-0.1834,-0.1834,-0.1833,-0.1831,-0.177,-0.1763,-0.1848,-0.1848,-0.1848,-0.1848,0,-0.1787,-0.1793,-0.1794,-0.1806,-0.1816,-0.1822,-0.1837,-0.1845,-0.1848,-0.1851,-0.1858,-0.1853,-0.1852,-0.1864,-0.1863,-0.1864,-0.1837,-0.1842,-0.1813,-0.1833,-0.1769,-0.176,-0.1851,-0.1851,-0.185,-0.185,0,0,-0.1757,-0.1787,-0.1787,-0.1797,-0.1823,-0.1825,-0.1852,-0.1867,-0.1871,-0.188,-0.1878,-0.1897,-0.1888,-0.1888,-0.1888,-0.1872,-0.1835,-0.1858,-0.1856,-0.1787,-0.1746,-0.1654,-0.1635,-0.1841,-0.184,-0.1839,-0.1699,0,-0.1755,-0.1771,-0.1793,-0.1812,-0.1819,-0.1844,-0.1866,-0.1882,-0.1889,-0.189,-0.189,-0.1889,-0.1901,-0.1897,-0.1886,-0.185,-0.1817,-0.1871,-0.1746,-0.1741,-0.1647,-0.1624,-0.1516,-0.1376,-0.169,-0.1689,-0.1687,0,-0.1742,-0.1754,-0.1774,-0.1808,-0.1814,-0.1831,-0.1852,-0.1872,-0.1887,-0.1894,-0.1897,-0.1891,-0.1879,-0.1882,-0.1814,-0.1849,-0.1799,-0.1765,-0.1759,-0.1652,-0.1633,-0.141,-0.1348,-0.1673,-0.1674,-0.1675,-0.1676,0,-0.17,-0.1738,-0.1751,-0.1762,-0.1805,-0.1817,-0.1838,-0.1863,-0.1874,-0.1884,-0.1881,-0.1873,-0.1846,-0.1808,-0.1747,-0.1779,-0.1648,-0.1678,-0.1539,-0.1531,-0.1402,-0.1384,-0.1612,-0.1613,-0.1613,-0.1613,-0.1614,0,-0.1679,-0.1685,-0.173,-0.1732,-0.1747,-0.1785,-0.1799,-0.1822,-0.1845,-0.1838,-0.187,-0.1839,-0.1827,-0.1759,-0.1721,-0.1583,-0.1619,-0.1518,-0.1486,-0.141,-0.1395,-0.1634,-0.1638,-0.1608,-0.1609,-0.161,-0.1611,0,-0.1623,-0.1659,-0.1669,-0.1711,-0.1726,-0.1727,-0.1776,-0.178,-0.1814,-0.1799,-0.18,-0.1791,-0.1694,-0.1654,-0.1559,-0.1515,-0.1418,-0.136,-0.1255,-0.1214,-0.1327,-0.1335,-0.1189,-0.1185,-0.1181,-0.1178,-0.1175,0,-0.1592,-0.1593,-0.1635,-0.1642,-0.166,-0.1681,-0.1697,-0.1752,-0.1751,-0.1749,-0.1721,-0.1648,-0.1555,-0.1382,-0.1289,-0.1163,-0.1266,-0.1007,-0.1055,-0.1298,-0.1282,-0.1297,-0.131,-0.0891,-0.0886,-0.0882,-0.0879,0,-0.1521,-0.154,-0.1548,-0.1563,-0.1579,-0.1595,-0.1613,-0.1609,-0.1647,-0.1625,-0.1536,-0.146,-0.1306,-0.1107,-0.0972,-0.091,-0.1028,-0.0922,-0.118,-0.1025,-0.1008,-0.0996,-0.102,-0.0844,-0.0848,-0.085,-0.0852,-0.0854,-0.1456,-0.1447,-0.1458,-0.1461,-0.1482,-0.146,-0.1415,-0.1431,-0.1385,-0.129,-0.131,-0.1143,-0.1082,-0.0787,-0.0702,-0.0649,-0.0739,-0.0718,-0.0734,-0.0753,-0.0753,-0.0732,-0.0514,-0.0516,-0.0517,-0.0518,-0.0519,0,-0.1358,-0.1355,-0.1354,-0.134,-0.1303,-0.1351,-0.1316,-0.123,-0.1112,-0.1066,-0.0957,-0.0755,-0.0599,-0.0561,-0.0405,-0.0366,-0.0413,-0.0364,-0.0433,-0.0465,-0.0494,-0.0488,-0.0174,-0.0174,-0.0173,-0.0173,0,0,-0.1304,-0.1258,-0.1253,-0.1148,-0.1137,-0.1003,-0.0942,-0.0848,-0.0772,-0.0619,-0.0529,-0.0522,-0.0513,-0.0338,-0.0292,-0.0205,-0.0345,-0.019,-0.046,-0.0572,-0.0601,-0.068,-0.0702,0,0,0,0,0]},{"header":{"parameterUnit":"m.s-1","parameterCategory":2,"la1":30.2991,"la2":30.254,"lo1":-89.0895,"lo2":-89.0444,"dy":0.0017,"dx":0.0017,"nx":28,"ny":28,"refTime":"2024-05-10T09:00:00:Z","depth":"2","parameterNumber":3,"parameterNumberName":"V-component_of_CURRENTS"},"data":[0,0,0,0,0,0,0,0,0,0,0,0,0,0,0,0,0,0,0,0,0,0,0,0,0,0,0,0,0,0,0,0,0,0,0,0,0,0,0,0,0,0,0,0,0,0,0,0,0,0,0,0,0,0,0,0,0,0,-0.0401,-0.0401,0,-0.0347,-0.0347,-0.0346,-0.0316,-0.0316,-0.0316,-0.0316,-0.0236,-0.0234,-0.0232,0,0,0,0,0,0,0,0,0,0,0,0,0,-0.0455,-0.0454,-0.0401,-0.0401,-0.04,-0.0348,-0.0347,-0.0346,-0.0316,-0.0316,-0.0316,-0.0316,-0.0237,-0.0234,-0.0232,0,0,0,0,0,0,0,0,0,0,0,0,0,-0.0419,-0.0454,-0.0402,-0.0379,-0.0377,-0.0348,-0.0347,-0.0346,-0.0316,-0.0316,-0.0316,-0.0316,-0.0237,-0.0234,-0.0231,-0.0214,0,0,-0.0222,-0.022,0,0,0,0,0,0,0,0,-0.0421,-0.0417,-0.0383,-0.0381,-0.0378,-0.0339,-0.0336,-0.03,-0.0316,-0.0339,-0.0316,-0.0316,-0.0268,-0.0262,-0.0253,-0.021,-0.0207,-0.0221,-0.022,-0.0218,-0.0217,0,0,0,0,0,0,0,-0.0424,-0.0419,-0.038,-0.0382,-0.0379,-0.0364,-0.0359,-0.0329,-0.0304,-0.0337,-0.0335,-0.0329,-0.0266,-0.0256,-0.025,-0.0206,-0.0222,-0.0219,-0.0217,-0.0216,-0.0151,-0.0151,0,0,0,0,0,0,-0.0432,-0.0422,-0.0382,-0.0378,-0.04,-0.0363,-0.0357,-0.0351,-0.0305,-0.0298,-0.0329,-0.0328,-0.0261,-0.0254,-0.0247,-0.0232,-0.0218,-0.0215,-0.0214,-0.0151,-0.0151,-0.0151,0,0,0,0,0,0,-0.0433,-0.0429,-0.0384,-0.0399,-0.0392,-0.0362,-0.0356,-0.035,-0.034,-0.0299,-0.0292,-0.0325,-0.0261,-0.0252,-0.0225,-0.0228,-0.0214,-0.0211,-0.0151,-0.0151,-0.0151,-0.0196,0,0,0,0,0,0,-0.0435,-0.043,-0.043,-0.04,-0.0392,-0.037,-0.0355,-0.0349,-0.0337,-0.0335,-0.0293,-0.0286,-0.026,-0.023,-0.0222,-0.0224,-0.0209,-0.015,-0.0151,-0.0151,-0.0195,-0.0198,-0.0201,0,0,0,0,0,-0.0437,-0.0436,-0.043,-0.0425,-0.0392,-0.037,-0.0365,-0.0343,-0.0337,-0.0334,-0.0308,-0.0287,-0.0227,-0.0228,-0.0218,-0.0219,-0.015,-0.0151,-0.0151,-0.0193,-0.0197,-0.0201,0,0,0,0,0,0,-0.0457,-0.0432,-0.0425,-0.0416,-0.0398,-0.0366,-0.0361,-0.0347,-0.0324,-0.0323,-0.0286,-0.0276,-0.0257,-0.0231,-0.0233,-0.0202,-0.0186,-0.0185,-0.0221,-0.0225,-0.0228,-0.0232,-0.0206,0,0,0,0,0,-0.0463,-0.0458,-0.0431,-0.0425,-0.0418,-0.0391,-0.038,-0.0367,-0.0342,-0.0332,-0.0304,-0.0275,-0.0251,-0.0233,-0.0209,-0.0186,-0.0152,-0.0182,-0.0185,-0.0188,-0.0185,-0.0136,-0.0135,-0.0152,-0.0152,-0.0152,0,0,-0.0468,-0.0455,-0.0452,-0.043,-0.0414,-0.0408,-0.0384,-0.0372,-0.0367,-0.0326,-0.0312,-0.0287,-0.0249,-0.023,-0.0218,-0.0207,-0.0166,-0.0188,-0.0191,-0.0186,-0.0136,-0.0135,-0.0133,-0.0153,-0.0153,-0.0152,0,0,-0.0482,-0.0467,-0.047,-0.0459,-0.0441,-0.0422,-0.0421,-0.0393,-0.0381,-0.0363,-0.0337,-0.0311,-0.0273,-0.0245,-0.0227,-0.023,-0.0189,-0.0227,-0.0238,-0.0192,-0.019,-0.0188,-0.0148,-0.0141,-0.0223,-0.0223,-0.0223,0,-0.0491,-0.0491,-0.0467,-0.047,-0.0466,-0.0432,-0.0437,-0.0417,-0.0385,-0.0373,-0.0366,-0.0308,-0.028,-0.0247,-0.0252,-0.0237,-0.0206,-0.0229,-0.0196,-0.0193,-0.019,-0.0149,-0.0141,-0.0225,-0.0225,-0.0225,-0.0224,0,-0.0509,-0.0511,-0.0512,-0.0505,-0.0495,-0.0493,-0.0466,-0.0453,-0.0435,-0.0411,-0.0381,-0.0339,-0.0302,-0.0292,-0.0272,-0.024,-0.0224,-0.0211,-0.0187,-0.0191,-0.0148,-0.0139,-0.0228,-0.0227,-0.0227,-0.0226,0,0,-0.0527,-0.0525,-0.0527,-0.0535,-0.0516,-0.051,-0.05,-0.0476,-0.0463,-0.0431,-0.0409,-0.0369,-0.0342,-0.0319,-0.0287,-0.0246,-0.0203,-0.0223,-0.022,-0.0185,-0.0102,-0.0093,-0.0082,-0.0184,-0.0183,-0.0182,-0.0083,0,-0.055,-0.057,-0.0558,-0.0573,-0.0581,-0.0553,-0.0544,-0.0518,-0.0486,-0.0454,-0.0404,-0.0374,-0.0353,-0.0335,-0.0291,-0.0225,-0.0182,-0.0231,-0.0102,-0.0098,-0.009,-0.0072,-0.0083,0.0005,-0.0074,-0.0072,-0.0071,0,-0.0576,-0.0585,-0.061,-0.0612,-0.0612,-0.0614,-0.0591,-0.0578,-0.0521,-0.0495,-0.0449,-0.0405,-0.0345,-0.0327,-0.021,-0.0243,-0.0178,-0.0125,-0.012,-0.0087,-0.0072,-0.0003,0.0024,-0.0057,-0.0058,-0.0059,-0.006,0,-0.061,-0.0621,-0.0645,-0.0648,-0.0642,-0.0646,-0.0636,-0.0594,-0.0576,-0.0518,-0.0489,-0.0415,-0.0365,-0.0283,-0.0179,-0.0191,-0.0044,-0.0043,0.0028,0.003,0.0059,0.0061,0.0044,0.0044,0.0044,0.0043,0.0043,0,-0.0645,-0.0661,-0.0666,-0.0682,-0.0703,-0.0684,-0.0687,-0.066,-0.0612,-0.0575,-0.0514,-0.0459,-0.035,-0.0254,-0.0174,-0.0043,-0.0036,0.0035,0.006,0.0042,0.004,0.0017,0.0012,0.0047,0.0046,0.0045,0.0045,0,-0.0683,-0.0686,-0.0716,-0.0723,-0.0725,-0.0743,-0.0729,-0.0719,-0.0667,-0.0613,-0.0595,-0.0479,-0.0349,-0.0239,-0.0087,-0.0026,0.0086,0.013,0.0096,0.0115,0.0127,0.0119,0.022,0.0222,0.0223,0.0224,0.0224,0,-0.0704,-0.0726,-0.0754,-0.0775,-0.0784,-0.0798,-0.0801,-0.0759,-0.0731,-0.0614,-0.0581,-0.0449,-0.0327,-0.0114,0.0009,0.0154,0.0142,0.0215,0.019,0.0132,0.0147,0.0138,0.0128,0.0213,0.0214,0.0214,0.0215,0,-0.0744,-0.0758,-0.0783,-0.0826,-0.0848,-0.0857,-0.0846,-0.0828,-0.0749,-0.0673,-0.0533,-0.0425,-0.0216,-0.0044,0.0119,0.0191,0.0184,0.0229,0.0203,0.0159,0.0131,0.0143,0.0134,0.0219,0.0219,0.0218,0.0218,0.0218,-0.077,-0.0803,-0.0837,-0.0874,-0.0896,-0.0896,-0.0881,-0.0835,-0.0763,-0.0616,-0.0509,-0.0326,-0.0167,0.008,0.0193,0.0265,0.0259,0.0272,0.0269,0.0266,0.0236,0.021,0.0308,0.0308,0.0308,0.0308,0.0308,0,-0.0796,-0.0831,-0.0875,-0.0912,-0.093,-0.0931,-0.089,-0.0833,-0.0723,-0.0592,-0.0434,-0.0215,-0.0038,0.0098,0.0234,0.0326,0.0306,0.0322,0.0285,0.028,0.0276,0.0245,0.0321,0.0321,0.0321,0.0321,0,0,-0.0812,-0.086,-0.0882,-0.092,-0.0941,-0.0916,-0.0881,-0.0775,-0.066,-0.0477,-0.0349,-0.0203,-0.0021,0.0082,0.0198,0.0263,0.024,0.0257,0.0237,0.0176,0.0171,0.0239,0.0185,0,0,0,0,0]}],[{"header":{"parameterUnit":"m.s-1","parameterCategory":2,"la1":30.2991,"la2":30.254,"lo1":-89.0895,"lo2":-89.0444,"dy":0.0017,"dx":0.0017,"nx":28,"ny":28,"refTime":"2024-05-10T09:00:00:Z","depth":"4","parameterNumber":2,"parameterNumberName":"U-component_of_CURRENTS"},"data":[0,0,0,0,0,0,0,0,0,0,0,0,0,0,0,0,0,0,0,0,0,0,0,0,0,0,0,0,0,0,0,0,0,0,0,0,0,0,0,0,0,0,0,0,0,0,0,0,0,0,0,0,0,0,0,0,0,0,-0.1248,-0.1248,0,-0.1271,-0.1272,-0.1272,-0.1286,-0.1286,-0.1286,-0.1286,-0.1298,-0.1299,-0.1299,0,0,0,0,0,0,0,0,0,0,0,0,0,-0.1224,-0.1224,-0.1248,-0.1248,-0.1249,-0.1271,-0.1272,-0.1272,-0.1286,-0.1286,-0.1286,-0.1286,-0.1298,-0.1299,-0.1299,0,0,0,0,0,0,0,0,0,0,0,0,0,-0.1238,-0.1224,-0.1248,-0.1259,-0.1261,-0.1271,-0.1272,-0.1272,-0.1286,-0.1286,-0.1286,-0.1287,-0.1298,-0.1299,-0.1299,-0.1295,0,0,-0.13,-0.13,0,0,0,0,0,0,0,0,-0.1238,-0.1239,-0.1257,-0.1258,-0.126,-0.1277,-0.1268,-0.1279,-0.1286,-0.1275,-0.1286,-0.1287,-0.1291,-0.1292,-0.1294,-0.1296,-0.1296,-0.13,-0.13,-0.13,-0.13,0,0,0,0,0,0,0,-0.1237,-0.1238,-0.1256,-0.1258,-0.1259,-0.1266,-0.1268,-0.127,-0.128,-0.1276,-0.1277,-0.1282,-0.1291,-0.1294,-0.1294,-0.1297,-0.13,-0.13,-0.13,-0.13,-0.1329,-0.1329,0,0,0,0,0,0,-0.1235,-0.1237,-0.1255,-0.1257,-0.125,-0.1267,-0.1269,-0.127,-0.128,-0.1283,-0.1281,-0.1282,-0.1293,-0.1294,-0.1295,-0.1328,-0.13,-0.13,-0.13,-0.1328,-0.1329,-0.133,0,0,0,0,0,0,-0.1234,-0.1236,-0.1254,-0.1249,-0.1252,-0.1267,-0.1268,-0.1271,-0.1291,-0.1285,-0.1287,-0.1302,-0.1293,-0.1295,-0.1312,-0.1327,-0.13,-0.13,-0.1327,-0.1328,-0.1329,-0.137,0,0,0,0,0,0,-0.1234,-0.1236,-0.1247,-0.1248,-0.1252,-0.1271,-0.1268,-0.1271,-0.1293,-0.1295,-0.1302,-0.1303,-0.1294,-0.1312,-0.1312,-0.1327,-0.1301,-0.1327,-0.1328,-0.1329,-0.1368,-0.1373,-0.1376,0,0,0,0,0,-0.1233,-0.124,-0.1247,-0.125,-0.1263,-0.1272,-0.1274,-0.1285,-0.1294,-0.1304,-0.1312,-0.1303,-0.1319,-0.1313,-0.1313,-0.1328,-0.1326,-0.1328,-0.1329,-0.1366,-0.1372,-0.1376,0,0,0,0,0,0,-0.1235,-0.1243,-0.125,-0.1261,-0.1272,-0.1275,-0.1289,-0.1297,-0.1312,-0.132,-0.1314,-0.1315,-0.1334,-0.1326,-0.1319,-0.1339,-0.132,-0.1322,-0.1349,-0.1354,-0.1357,-0.1345,-0.1301,0,0,0,0,0,-0.1241,-0.125,-0.1258,-0.1269,-0.1277,-0.1288,-0.1298,-0.1306,-0.1315,-0.1323,-0.133,-0.1334,-0.1337,-0.1343,-0.1343,-0.1357,-0.1325,-0.1366,-0.137,-0.1373,-0.1363,-0.1332,-0.1332,-0.1334,-0.1334,-0.1334,0,0,-0.1246,-0.1252,-0.1258,-0.1271,-0.1282,-0.1295,-0.1295,-0.1314,-0.1328,-0.1321,-0.1349,-0.1351,-0.1344,-0.1358,-0.1366,-0.1357,-0.1357,-0.1375,-0.1378,-0.1366,-0.1334,-0.1333,-0.1333,-0.1335,-0.1335,-0.1335,0,0,-0.1251,-0.1266,-0.1275,-0.1287,-0.1306,-0.1313,-0.1323,-0.134,-0.1353,-0.1375,-0.1373,-0.1382,-0.1396,-0.1388,-0.1385,-0.1411,-0.1379,-0.142,-0.1431,-0.1402,-0.1402,-0.14,-0.136,-0.1355,-0.1422,-0.1422,-0.1423,0,-0.126,-0.1268,-0.128,-0.1292,-0.1305,-0.1323,-0.1337,-0.1352,-0.1373,-0.1381,-0.139,-0.1402,-0.1403,-0.1404,-0.1416,-0.1419,-0.1394,-0.1415,-0.1406,-0.1405,-0.1403,-0.1362,-0.1355,-0.1425,-0.1424,-0.1424,-0.1424,0,-0.1263,-0.1282,-0.129,-0.131,-0.1326,-0.1342,-0.1362,-0.1384,-0.1405,-0.1413,-0.143,-0.1431,-0.1432,-0.1441,-0.1439,-0.1433,-0.1417,-0.1415,-0.1392,-0.1405,-0.1361,-0.1354,-0.1428,-0.1427,-0.1426,-0.1426,0,0,-0.1246,-0.1285,-0.129,-0.1303,-0.1338,-0.1346,-0.1377,-0.1397,-0.141,-0.1436,-0.1441,-0.1457,-0.1458,-0.1454,-0.1453,-0.1436,-0.1409,-0.1427,-0.1424,-0.1383,-0.1336,-0.1242,-0.1225,-0.141,-0.1409,-0.1408,-0.1311,0,-0.1247,-0.1269,-0.1292,-0.132,-0.133,-0.1363,-0.1385,-0.1409,-0.1429,-0.1439,-0.1443,-0.145,-0.1462,-0.1465,-0.1451,-0.1418,-0.1392,-0.1435,-0.1333,-0.1329,-0.1241,-0.1214,-0.1405,-0.1305,-0.1304,-0.1302,-0.1301,0,-0.1235,-0.1252,-0.1279,-0.1317,-0.1326,-0.135,-0.1381,-0.1404,-0.1425,-0.144,-0.1449,-0.145,-0.1438,-0.1444,-0.1385,-0.1414,-0.1377,-0.1349,-0.1344,-0.1232,-0.122,-0.129,-0.1288,-0.1289,-0.129,-0.1291,-0.1292,0,-0.1196,-0.124,-0.1261,-0.1275,-0.1322,-0.1344,-0.1371,-0.1403,-0.1416,-0.1435,-0.1436,-0.1431,-0.1412,-0.138,-0.1334,-0.1359,-0.1251,-0.1274,-0.1149,-0.1142,-0.124,-0.1243,-0.1217,-0.1217,-0.1217,-0.1217,-0.1218,0,-0.1168,-0.1187,-0.1248,-0.1255,-0.128,-0.1323,-0.1348,-0.1375,-0.1401,-0.1393,-0.143,-0.1398,-0.1394,-0.134,-0.1312,-0.1191,-0.1228,-0.1128,-0.1102,-0.1261,-0.1267,-0.1235,-0.1238,-0.1214,-0.1214,-0.1215,-0.1216,0,-0.1113,-0.1158,-0.1183,-0.124,-0.1261,-0.1276,-0.1334,-0.134,-0.1379,-0.1364,-0.1367,-0.1358,-0.1277,-0.1253,-0.1175,-0.1133,-0.1051,-0.1001,-0.1153,-0.1142,-0.097,-0.0977,-0.0847,-0.0843,-0.0839,-0.0836,-0.0833,0,-0.1082,-0.1091,-0.1159,-0.1176,-0.1206,-0.1244,-0.1262,-0.132,-0.1314,-0.1315,-0.128,-0.1227,-0.1205,-0.1004,-0.101,-0.0923,-0.0918,-0.0877,-0.0942,-0.0939,-0.0929,-0.0941,-0.0953,-0.0827,-0.0826,-0.0825,-0.0825,0,-0.1014,-0.1053,-0.1072,-0.1103,-0.1133,-0.1154,-0.1179,-0.1164,-0.12,-0.1257,-0.1143,-0.1082,-0.0977,-0.091,-0.084,-0.0794,-0.0909,-0.0839,-0.0847,-0.0908,-0.0914,-0.091,-0.0926,-0.0812,-0.0814,-0.0815,-0.0816,0,-0.0963,-0.0963,-0.0993,-0.1008,-0.1045,-0.1024,-0.1061,-0.103,-0.103,-0.1042,-0.0994,-0.0944,-0.0946,-0.0838,-0.0779,-0.0717,-0.0715,-0.0705,-0.0721,-0.0735,-0.0745,-0.074,-0.0536,0,0,0,0,0,-0.0902,-0.0884,-0.0892,-0.0891,-0.0923,-0.0931,-0.0977,-0.1012,-0.1051,-0.0938,-0.0962,-0.0863,-0.0757,-0.0737,-0.0644,-0.0731,-0.0724,-0.0623,-0.0725,-0.0741,-0.0756,-0.078,0,0,0,0,0,0,-0.0856,-0.0859,-0.085,-0.078,-0.0759,-0.0765,-0.0786,-0.0821,-0.0762,-0.0813,-0.0751,-0.0801,-0.0705,-0.0774,-0.0617,-0.0613,-0.0658,-0.0614,-0.0612,-0.0733,-0.0746,-0.0758,-0.0788,0,0,0,0,0]},{"header":{"parameterUnit":"m.s-1","parameterCategory":2,"la1":30.2991,"la2":30.254,"lo1":-89.0895,"lo2":-89.0444,"dy":0.0017,"dx":0.0017,"nx":28,"ny":28,"refTime":"2024-05-10T09:00:00:Z","depth":"4","parameterNumber":3,"parameterNumberName":"V-component_of_CURRENTS"},"data":[0,0,0,0,0,0,0,0,0,0,0,0,0,0,0,0,0,0,0,0,0,0,0,0,0,0,0,0,0,0,0,0,0,0,0,0,0,0,0,0,0,0,0,0,0,0,0,0,0,0,0,0,0,0,0,0,0,0,-0.0216,-0.0216,0,-0.0183,-0.0183,-0.0182,-0.0169,-0.0169,-0.0169,-0.0169,-0.0117,-0.0116,-0.0114,0,0,0,0,0,0,0,0,0,0,0,0,0,-0.0249,-0.0248,-0.0216,-0.0216,-0.0215,-0.0183,-0.0183,-0.0182,-0.0169,-0.0169,-0.0169,-0.0169,-0.0118,-0.0116,-0.0114,0,0,0,0,0,0,0,0,0,0,0,0,0,-0.0227,-0.0248,-0.0216,-0.0205,-0.0204,-0.0183,-0.0182,-0.0182,-0.0169,-0.0169,-0.0169,-0.0169,-0.0118,-0.0116,-0.0114,-0.0096,0,0,-0.0107,-0.0106,0,0,0,0,0,0,0,0,-0.0228,-0.0225,-0.0207,-0.0206,-0.0204,-0.0181,-0.0175,-0.0152,-0.0169,-0.0182,-0.0169,-0.0169,-0.0137,-0.0133,-0.0126,-0.0094,-0.0092,-0.0107,-0.0105,-0.0104,-0.0104,0,0,0,0,0,0,0,-0.0229,-0.0227,-0.0203,-0.0207,-0.0205,-0.0195,-0.0192,-0.017,-0.0158,-0.0181,-0.018,-0.0176,-0.0136,-0.0128,-0.0125,-0.0091,-0.0107,-0.0105,-0.0103,-0.0102,-0.0065,-0.0065,0,0,0,0,0,0,-0.0235,-0.0228,-0.0204,-0.0202,-0.0217,-0.0195,-0.0191,-0.0188,-0.0159,-0.0155,-0.0176,-0.0176,-0.0132,-0.0127,-0.0123,-0.0119,-0.0104,-0.0102,-0.0101,-0.0065,-0.0065,-0.0066,0,0,0,0,0,0,-0.0236,-0.0233,-0.0205,-0.0214,-0.021,-0.0194,-0.019,-0.0187,-0.0184,-0.0156,-0.0151,-0.0176,-0.0132,-0.0126,-0.011,-0.0116,-0.0101,-0.0099,-0.0064,-0.0065,-0.0065,-0.01,0,0,0,0,0,0,-0.0237,-0.0234,-0.0236,-0.0215,-0.021,-0.0197,-0.019,-0.0186,-0.0181,-0.018,-0.0154,-0.0149,-0.0132,-0.0113,-0.0107,-0.0113,-0.0097,-0.0064,-0.0065,-0.0065,-0.0099,-0.0102,-0.0105,0,0,0,0,0,-0.0238,-0.0238,-0.0237,-0.0234,-0.0213,-0.0197,-0.0194,-0.0182,-0.0181,-0.018,-0.0165,-0.015,-0.0114,-0.0111,-0.0105,-0.011,-0.0064,-0.0064,-0.0065,-0.0097,-0.0101,-0.0105,0,0,0,0,0,0,-0.0252,-0.0236,-0.0234,-0.023,-0.0218,-0.0195,-0.0194,-0.0186,-0.0172,-0.0175,-0.0149,-0.0143,-0.0135,-0.0116,-0.0115,-0.0102,-0.0088,-0.0088,-0.0115,-0.0118,-0.0121,-0.0127,-0.0096,0,0,0,0,0,-0.0257,-0.0256,-0.0238,-0.0236,-0.0231,-0.0214,-0.0208,-0.0201,-0.0185,-0.0179,-0.0162,-0.0145,-0.0132,-0.0121,-0.0107,-0.0092,-0.0071,-0.0093,-0.0096,-0.0099,-0.01,-0.0074,-0.0075,-0.0068,-0.0068,-0.0068,0,0,-0.0262,-0.0254,-0.0253,-0.0239,-0.023,-0.0227,-0.0211,-0.0204,-0.0205,-0.0175,-0.0171,-0.0155,-0.0132,-0.0123,-0.0118,-0.0107,-0.009,-0.01,-0.0102,-0.0101,-0.0075,-0.0076,-0.0076,-0.0069,-0.0069,-0.0069,0,0,-0.0272,-0.0265,-0.0268,-0.0262,-0.0251,-0.0239,-0.024,-0.0222,-0.0217,-0.0207,-0.0193,-0.018,-0.0155,-0.0141,-0.013,-0.0139,-0.011,-0.0138,-0.0151,-0.0126,-0.0127,-0.0127,-0.0099,-0.0097,-0.0134,-0.0135,-0.0135,0,-0.028,-0.0283,-0.0266,-0.0269,-0.027,-0.0248,-0.0255,-0.0243,-0.0223,-0.022,-0.0212,-0.0183,-0.0164,-0.0152,-0.0157,-0.0146,-0.0126,-0.0139,-0.013,-0.013,-0.0129,-0.0101,-0.0097,-0.0136,-0.0136,-0.0136,-0.0136,0,-0.0291,-0.0298,-0.0299,-0.0299,-0.0295,-0.0296,-0.0281,-0.0276,-0.0267,-0.0254,-0.0243,-0.0215,-0.0196,-0.019,-0.0175,-0.0164,-0.015,-0.0141,-0.0121,-0.0132,-0.0102,-0.0097,-0.0139,-0.0138,-0.0138,-0.0137,0,0,-0.0302,-0.0307,-0.031,-0.0323,-0.0314,-0.0313,-0.0312,-0.0304,-0.0304,-0.0283,-0.0278,-0.0255,-0.0238,-0.0225,-0.0203,-0.0179,-0.0157,-0.0159,-0.0157,-0.0132,-0.01,-0.0097,-0.0092,-0.0146,-0.0145,-0.0145,-0.008,0,-0.0321,-0.034,-0.0335,-0.0357,-0.0368,-0.0354,-0.0355,-0.0344,-0.0327,-0.0314,-0.0283,-0.027,-0.0251,-0.0242,-0.0217,-0.0173,-0.0147,-0.0175,-0.0093,-0.009,-0.0087,-0.0088,-0.0143,-0.0077,-0.0076,-0.0075,-0.0075,0,-0.0338,-0.035,-0.0378,-0.0395,-0.0398,-0.0407,-0.0408,-0.0405,-0.0376,-0.0361,-0.0337,-0.0307,-0.0273,-0.0254,-0.0183,-0.0201,-0.0156,-0.0118,-0.0115,-0.0097,-0.008,-0.0063,-0.0066,-0.0067,-0.0068,-0.0068,-0.0069,0,-0.0363,-0.0383,-0.0411,-0.0418,-0.0427,-0.0441,-0.0443,-0.0424,-0.0419,-0.0391,-0.0373,-0.0332,-0.03,-0.0247,-0.0171,-0.0176,-0.0084,-0.008,-0.0034,-0.0033,-0.0038,-0.0039,-0.0029,-0.0029,-0.0029,-0.003,-0.003,0,-0.0387,-0.041,-0.043,-0.0447,-0.0479,-0.0474,-0.0494,-0.0484,-0.0461,-0.0442,-0.0402,-0.0367,-0.0295,-0.0231,-0.0173,-0.0089,-0.0085,-0.0035,-0.0017,-0.0055,-0.0058,-0.0035,-0.0036,-0.0027,-0.0028,-0.0028,-0.0029,0,-0.0411,-0.0423,-0.0461,-0.0485,-0.0496,-0.0521,-0.0532,-0.0534,-0.0507,-0.0477,-0.0467,-0.0389,-0.0302,-0.0226,-0.0125,-0.0086,-0.0011,0.0019,-0.0023,-0.0009,0.0025,0.0021,0.0072,0.0073,0.0073,0.0073,0.0074,0,-0.0424,-0.0446,-0.0494,-0.052,-0.0538,-0.0567,-0.0579,-0.0565,-0.0551,-0.0479,-0.0457,-0.037,-0.0309,-0.016,-0.0095,0.0011,0.0025,0.0056,0.0033,0.0022,0.0035,0.003,0.0025,0.0075,0.0075,0.0075,0.0075,0,-0.0448,-0.0471,-0.0501,-0.0553,-0.0585,-0.0609,-0.0617,-0.0605,-0.0561,-0.0537,-0.0425,-0.0341,-0.0238,-0.0141,-0.0059,0.0014,0.0027,0.0061,0.0061,0.004,0.0026,0.0037,0.0032,0.0077,0.0076,0.0076,0.0076,0,-0.0465,-0.0495,-0.0536,-0.0577,-0.0618,-0.0629,-0.0635,-0.0592,-0.0567,-0.047,-0.0432,-0.0315,-0.0246,-0.0137,-0.0062,0.0006,0.0019,0.0031,0.0032,0.0031,-0.0008,-0.0033,0.0018,0,0,0,0,0,-0.0476,-0.0506,-0.0551,-0.0593,-0.0629,-0.0645,-0.0643,-0.0632,-0.0579,-0.0496,-0.0456,-0.0351,-0.0211,-0.0154,-0.0083,-0.008,0.0004,0.0002,0.0012,0.0086,0.0084,0.0045,0,0,0,0,0,0,-0.0485,-0.0531,-0.055,-0.0588,-0.0613,-0.0642,-0.064,-0.0607,-0.055,-0.0486,-0.0409,-0.0344,-0.0217,-0.0247,-0.0082,-0.0063,-0.005,0.0071,0.0072,0.0088,0.0086,0.0084,0.0042,0,0,0,0,0]}]]